Zurück zum Katalog

IRIDIUM 168

AktivKommunikationPO
NORAD 43924·PAYLOAD·🇺🇸 United States

Gestartet Jan 11, 2019 von Vandenberg Space Force Base

Loading…

Nächste Überflüge (nächste 24 Stunden)

TLE

AktuellSource: CelesTrak SupGP

Epoche: Sep 14, 2026, 21:03 UTC

1 43924C 19002C   26257.87743056 -.00001227  00000+0 -43856-3 0  2575
2 43924  86.3978 316.2070 0002322  96.7148  35.0141 14.34217604    15

Verfolge IRIDIUM 168 in Echtzeit mit AllMySat

Download on the App Store